Content
SEND FEEDBACK

Daily
Averages
Monthly
Summary
France

AVIGNON, FRANCE


Home > Europe > France
Elevation: 187 feet     Latitude: 44 00N     Longitude: 004 45E

WEATHER
 
SELECT A DAY
Number of Records: 167,100;   Date Range: 5/17/04 - 7/20/14
 
SHARE

PRINT THIS DATA

[ ← Previous Day ]
WEATHER ALMANAC - FEBRUARY 20, 2013
[ Next Day → ]
[ °C ]   °F
Weather ElementAverageHighLow
Temperature41.8 °F57.2 °F (2:30 pm)26.6 °F (5:30 am)
Dewpoint29.5 °F33.8 °F (9:00 am)23 °F (3:00 pm)
Humidity67.6 %100 % (1:30 am)29 % (2:30 pm)
Barometer29.87 in29.95 in (12:30 am)29.80 in (3:00 pm)
Wind Speed11.7 mph25.3 mph (4:00 pm)
Wind Gust38 mph (4:00 pm)
Weather ElementAverage
Visibility5.4 mi
Wind DirectionSSW (209.1 °)

Weather ElementTotal
Precipitation---
Heating Degree Days23.1 (Base 65)
Averaged from 45 records on February 20, 2013
WEATHER CONDITIONS BREAKOUT
WIND DIRECTION BREAKOUT
WEATHER BY HOUR - FEBRUARY 20, 2013
[ °C ]   °F
Local TimeTemperatureDewpointHumidityBarometerVisibilityWind DirectionWind SpeedGust SpeedPrecipitationEventsConditions
12:30 AM32.0 °F30.2 °F93 %29.95 inSW (220°)2.3 mphMist
1:30 AM30.2 °F30.2 °F100 %29.95 inCalmMist
2:00 AM28.4 °F28.4 °F100 %29.95 in2.2 miCalmMist
2:30 AM30.2 °F30.2 °F100 %29.92 inCalmMist
3:00 AM28.4 °F26.6 °F93 %29.92 in2.2 miCalmMist
3:30 AM28.4 °F28.4 °F100 %29.92 in1.6 miCalmFogLight Freezing Fog
4:00 AM28.4 °F28.4 °F100 %29.92 in3.1 miCalmMist
4:30 AM28.4 °F28.4 °F100 %29.89 inCalmMist
5:00 AM30.2 °F30.2 °F100 %29.92 in3.1 miEast (90°)1.2 mphMist
5:30 AM26.6 °F26.6 °F100 %29.92 in3.7 miCalm
6:00 AM30.2 °F30.2 °F100 %29.89 in4.3 miNNW (340°)4.6 mph
6:30 AM32.0 °F30.2 °F93 %29.89 in5.0 miNNW (330°)4.6 mph
7:00 AM33.8 °F30.2 °F87 %29.89 in5.6 miNNW (340°)6.9 mph
7:30 AM33.8 °F30.2 °F87 %29.89 in5.6 miNorth (10°)3.5 mph
8:00 AM33.8 °F32.0 °F93 %29.89 in5.0 miVariable2.3 mph
8:30 AM35.6 °F32.0 °F87 %29.92 in5.0 miVariable2.3 mph
9:00 AM39.2 °F33.8 °F81 %29.92 in5.0 miVariable1.2 mph
9:30 AM41.0 °F33.8 °F76 %29.92 in4.3 miVariable2.3 mph
10:00 AM42.8 °F33.8 °F70 %29.89 in5.0 miNorth (10°)3.5 mph
10:30 AM44.6 °F33.8 °F66 %29.89 in6.2 miNorth (10°)4.6 mph
11:00 AM46.4 °F32.0 °F57 %29.89 in6.2 miVariable2.3 mph
11:30 AM50.0 °F32.0 °F50 %29.89 in6.2 miNNW (330°)13.8 mph
12:00 PM51.8 °F32.0 °F47 %29.89 in6.2 miNNW (330°)12.7 mph
12:30 PM51.8 °F28.4 °F41 %29.86 in6.2 miNNW (340°)19.6 mph
1:00 PM53.6 °F28.4 °F38 %29.86 in6.2 miNorth (350°)20.7 mph
1:30 PM55.4 °F26.6 °F33 %29.83 in6.2 miNNW (340°)20.7 mph
2:00 PM55.4 °F26.6 °F33 %29.83 in6.2 miNorth (350°)20.7 mph
2:30 PM57.2 °F24.8 °F29 %29.83 in6.2 miNorth (360°)15.0 mph
3:00 PM55.4 °F23.0 °F29 %29.80 in6.2 miNorth (350°)21.9 mph
3:30 PM55.4 °F23.0 °F29 %29.80 in6.2 miNorth (350°)23.0 mph
4:00 PM55.4 °F23.0 °F29 %29.80 in6.2 miNorth (350°)25.3 mph38.0 mph
5:00 PM53.6 °F24.8 °F33 %29.80 in6.2 miNorth (350°)20.7 mph
5:30 PM51.8 °F24.8 °F35 %29.80 in6.2 miNorth (360°)19.6 mph
6:00 PM50.0 °F24.8 °F37 %29.80 in6.2 miNorth (360°)19.6 mph
6:30 PM48.2 °F24.8 °F40 %29.83 in6.2 miNorth (350°)24.2 mph
7:00 PM48.2 °F28.4 °F46 %29.83 in6.2 miNorth (350°)23.0 mph36.8 mph
7:30 PM46.4 °F28.4 °F50 %29.83 in6.2 miNorth (350°)21.9 mph
8:00 PM44.6 °F30.2 °F57 %29.86 in6.2 miNorth (350°)20.7 mph
8:30 PM42.8 °F32.0 °F66 %29.83 in6.2 miNorth (350°)18.4 mph
9:00 PM42.8 °F33.8 °F70 %29.83 in6.2 miNorth (360°)21.9 mph
9:30 PM42.8 °F33.8 °F70 %29.83 in6.2 miNorth (10°)20.7 mph
10:00 PM42.8 °F33.8 °F70 %29.86 in5.6 miNorth (350°)24.2 mph36.8 mph
10:30 PM41.0 °F33.8 °F76 %29.86 in5.6 miNorth (360°)19.6 mph
11:00 PM41.0 °F33.8 °F76 %29.86 in5.6 miNorth (350°)19.6 mph
11:30 PM41.0 °F33.8 °F76 %29.86 in5.6 miNorth (360°)16.1 mph
Hourly data recorded from LFMV, located miles away from Avignon, France







STORIES FROM OUR PARTNERS